{"data":{"norad_id":67677,"epoch":"2026-09-19T09:07:18.773760Z","epoch_age_seconds":187091,"freshness":"STALE","line1":"1 67677U 26023D   26262.38007840  .00002161  00000+0  85114-4 0  9996","line2":"2 67677  96.6322 313.2817 0017515 149.5582 210.6680 15.26368478 34360","mean_motion":15.26368478,"eccentricity":0.0017515,"inclination_deg":96.6322,"raan_deg":313.2817,"arg_perigee_deg":149.5582,"mean_anomaly_deg":210.668,"bstar":8.5114e-5,"rev_number":3436,"period_min":94.341570908673,"perigee_km":474.6555024441,"apogee_km":498.70295369102,"semimajor_km":6864.8162280676,"source":"CELESTRAK","updated_at":"2026-09-21T09:00:16.776739Z"}}